RH
20 21 29 40 69 69 55 42 37 29 29 26 21 16 12 14 19 25 23 33 73 94 100 100 100 100 100 100 100 100 95 83 79 62 71 64 59 66 75 81 80 76 70
20 26 39 70 74 56 36 27 24 25 31 27 26 23 17 15 16 19 25 26 34 56 85 93 94 100 100 100 100 92 85 81 83 70 65 65 60 65 86 86 76 63 56
27 38 72 82 65 32 27 25 25 29 31 31 32 34 30 20 19 17 18 21 29 35 59 93 86 92 82 74 80 84 83 72 75 75 74 68 62 69 84 83 76 56 53
57 73 81 74 54 48 33 29 27 28 29 28 28 32 36 40 34 24 23 22 19 21 31 64 82 86 90 75 66 55 60 55 47 50 56 59 64 85 97 86 77 56 58
78 96 88 86 79 67 52 43 40 38 38 36 34 31 29 34 39 45 46 42 38 34 31 30 33 38 42 47 53 48 43 44 46 49 55 65 87 100 100 96 80 57 54
97 100 97 84 73 70 66 57 51 47 50 49 48 48 47 44 39 36 36 42 48 57 61 63 64 62 61 62 64 70 74 76 76 76 79 75 69 72 74 88 93 77 70
87 95 85 66 61 57 50 46 44 38 31 33 36 39 37 39 45 48 49 50 49 48 46 45 46 48 51 53 52 54 60 64 62 64 70 64 62 66 67 72 75 74 74
47 45 47 40 31 21 17 16 16 15 14 15 15 16 17 16 17 18 18 18 19 21 24 28 37 43 46 45 43 45 48 49 53 60 66 72 78 77 71 71 73 72 73
20 20 19 20 20 20 18 18 18 18 18 16 16 15 15 16 16 17 16 15 14 15 15 15 16 16 17 18 18 19 21 22 28 31 38 45 55 65 73 77 75 74 78
19 20 21 22 22 20 19 18 18 18 17 16 15 15 15 15 15 20 26 25 23 23 24 30 31 30 29 29 30 30 29 28 27 26 26 26 29 32 35 36 40 49 50
21 25 24 23 21 19 17 16 16 15 14 14 14 14 13 12 11 10 12 18 24 28 29 29 29 31 34 35 37 41 47 58 61 60 60 55 53 49 46 45 43 41 37
26 25 24 22 20 19 18 17 15 13 14 13 12 13 13 12 12 12 13 14 13 22 23 32 43 46 44 42 51 51 50 52 46 41 37 34 31 30 30 29 29 30 30
25 24 23 22 22 22 22 17 14 14 13 12 12 12 12 11 12 12 15 18 21 30 39 41 34 32 32 34 34 32 31 31 32 31 29 25 22 20 19 18 17 18 20
25 24 23 23 23 24 21 16 14 15 14 13 13 14 14 14 18 18 17 17 23 34 43 46 43 37 35 30 27 24 21 20 18 17 16 16 16 17 18 18 17 16 16
28 24 22 21 24 23 19 17 16 16 16 16 17 17 21 24 26 27 30 32 34 30 35 42 38 36 33 31 28 23 21 18 18 19 18 16 15 15 12 10 10 10 9
28 23 23 23 26 23 19 18 18 18 18 20 21 26 28 28 33 37 41 38 30 27 26 43 42 38 35 24 21 18 16 14 11 9 8 6 5 4 4 4 4 4 4
32 26 24 28 28 23 20 19 21 22 25 30 31 31 32 35 39 40 32 32 34 31 27 34 28 25 21 18 16 14 10 7 5 4 3 3 3 3 3 3 3 3 3
30 25 29 31 26 23 21 23 26 29 34 36 35 35 36 39 34 32 34 33 33 28 19 16 18 15 12 11 8 6 5 4 3 3 3 3 3 2 2 2 2 2 2
28 29 34 28 25 23 25 31 35 37 39 37 35 40 35 33 34 35 34 29 24 19 15 12 10 8 6 5 5 4 4 3 2 2 2 2 2 2 2 2 2 2 2
30 34 29 25 22 26 32 40 42 43 39 35 39 36 33 32 32 31 28 21 16 12 11 8 5 4 4 3 3 3 3 3 2 2 2 2 2 2 2 2 2 2 2
34 29 24 22 28 38 42 45 44 36 39 39 37 32 34 32 28 22 17 13 10 7 5 4 3 3 3 3 3 3 3 3 2 2 3 2 2 2 2 2 2 2 1
27 22 22 35 42 50 49 38 35 41 41 34 32 33 31 25 22 18 12 7 6 4 3 2 2 3 4 3 3 3 3 3 3 2 3 2 2 2 2 2 2 2 2
22 29 39 47 53 41 35 40 45 40 34 34 33 28 26 21 14 9 6 6 5 3 3 2 3 3 3 3 3 3 2 2 2 2 2 1 2 2 2 2 2 2 2
36 47 53 49 39 37 46 48 35 36 39 32 28 24 17 11 7 6 5 5 4 3 3 3 3 3 3 3 3 2 2 2 2 2 2 2 2 3 3 3 2 2 2
51 52 40 38 43 53 38 36 41 39 32 29 25 15 7 6 6 5 5 4 4 3 3 3 3 3 2 2 2 2 2 2 2 3 3 4 3 4 4 3 3 3 3
45 40 40 58 45 37 41 41 35 32 29 22 14 8 6 6 6 5 4 4 3 3 3 3 2 2 2 2 2 2 3 3 3 4 5 4 4 4 4 4 4 4 4
Wind_Speed
63 59 55 46 41 43 44 48 49 48 48 48 46 49 50 52 53 56 59 63 66 66 65 65 62 66 70 71 72 73 75 76 78 75 75 71 68 67 66 66 66 66 68
58 56 48 43 43 44 46 47 45 45 46 45 46 47 49 51 54 58 61 65 68 72 71 72 70 71 74 76 79 82 83 80 84 81 78 75 74 72 73 73 74 74 72
57 50 44 44 45 42 43 42 43 42 43 43 45 46 46 48 52 54 60 64 68 72 76 76 79 81 83 84 86 87 91 88 85 83 81 81 79 77 78 78 78 76 75
50 44 44 42 42 41 41 41 41 40 41 43 44 45 46 47 49 52 55 59 65 72 78 84 85 86 89 92 92 87 87 88 84 84 84 82 81 82 84 84 82 82 80
44 41 43 43 44 43 43 43 42 43 46 46 47 47 47 48 50 52 55 57 60 64 68 73 78 81 83 85 87 86 86 88 88 87 87 87 88 89 89 90 88 87 86
42 41 41 41 45 48 47 48 48 48 50 51 53 54 54 54 56 57 59 61 63 66 69 72 76 79 81 83 86 88 90 91 92 91 93 94 93 93 93 93 94 93 93
41 42 44 47 47 49 51 51 52 51 51 53 55 58 59 59 62 63 65 67 69 72 74 76 79 82 84 86 88 90 92 94 96 96 97 98 98 98 98 98 98 97 98
39 40 45 46 45 46 47 48 50 52 52 53 56 59 62 64 65 66 69 72 74 78 82 84 87 89 91 94 97 99 101 103 104 105 105 105 105 105 106 107 107 108 106
37 38 40 42 42 43 45 48 51 54 55 55 57 59 62 66 69 74 77 79 80 83 86 90 93 95 98 100 102 105 109 110 111 112 113 114 114 115 115 115 116 116 117
38 41 43 44 45 48 50 52 55 58 62 63 64 65 66 66 68 69 79 85 87 89 92 94 97 101 104 106 108 111 113 115 117 118 119 120 122 122 123 124 124 124 126
44 44 46 47 50 53 55 57 59 61 64 67 69 71 73 74 75 72 71 80 88 91 94 98 103 105 107 109 111 113 116 116 117 119 120 122 124 125 126 125 125 125 125
45 49 50 53 55 58 61 65 67 69 72 73 74 75 77 80 82 83 81 81 82 87 95 100 104 105 107 108 111 111 111 114 116 118 120 121 122 122 123 123 124 125 125
51 55 57 60 63 66 69 74 75 77 80 81 82 83 84 85 84 85 86 87 90 92 92 93 97 101 102 104 107 111 113 116 118 120 122 122 120 121 122 121 121 122 123
57 60 63 66 70 73 76 81 82 87 88 88 88 87 87 88 89 93 95 94 82 83 89 94 97 99 101 103 106 109 111 115 118 120 122 124 127 129 131 133 133 133 131
63 67 70 73 77 79 83 87 91 93 92 91 89 90 90 93 95 95 93 94 94 84 82 87 94 101 107 111 115 118 120 123 127 131 135 135 136 137 136 135 136 137 136
68 73 77 80 83 86 90 95 97 95 93 93 92 93 96 96 95 96 96 95 97 99 93 98 103 109 114 118 123 127 131 134 136 137 136 134 129 126 124 123 120 120 120
75 81 84 86 90 94 99 101 98 94 93 95 96 97 97 95 96 94 94 98 103 111 114 109 115 120 124 126 128 131 134 132 127 126 120 114 109 108 109 110 111 111 110
83 86 89 93 97 101 103 99 95 94 95 97 99 97 97 95 95 98 103 109 114 120 124 124 122 127 131 131 130 125 118 114 110 106 104 100 98 99 100 98 97 99 99
89 91 95 99 104 105 99 95 95 97 98 100 98 97 93 96 102 109 115 119 123 126 129 132 128 126 121 117 111 106 104 102 99 96 92 87 86 85 84 83 83 85 86
93 98 101 106 106 98 95 96 97 98 101 99 96 96 101 108 113 119 124 127 128 129 128 126 120 111 104 99 96 94 94 93 89 84 82 79 79 76 74 74 77 78 77
99 103 108 105 97 96 97 97 99 99 98 94 99 105 112 119 124 128 129 128 127 123 117 110 102 99 95 92 89 87 82 81 80 73 74 73 71 70 71 70 71 72 73
105 109 102 95 96 96 97 100 99 94 96 102 107 115 122 127 130 131 130 124 119 111 102 97 93 88 85 82 80 78 74 72 71 64 69 69 63 65 62 62 60 61 62
108 98 95 95 96 98 99 97 94 100 105 112 119 124 128 131 131 125 117 111 107 104 100 91 84 82 78 74 71 69 66 65 64 62 63 61 54 55 52 50 51 50 49
94 94 95 96 97 99 95 96 101 108 115 121 126 131 131 127 121 113 104 101 100 95 89 84 80 75 71 69 67 63 61 60 56 53 54 54 47 44 43 43 43 42 42
93 93 96 96 96 94 99 104 111 118 122 127 132 132 125 115 108 103 99 94 90 85 81 76 72 69 66 63 60 58 56 53 48 46 45 45 42 39 36 37 36 36 36
92 93 95 93 95 100 107 114 119 123 127 128 127 123 114 107 102 98 91 85 81 77 75 71 66 61 58 55 52 50 48 45 43 38 37 35 33 32 30 30 29 29 27
Wind_Direction
290 295 295 287 284 286 287 288 288 287 287 286 286 283 278 272 265 261 258 255 255 257 258 262 268 268 270 272 272 275 278 279 282 283 283 277 277 272 271 273 272 269 265
292 295 290 286 285 290 291 291 290 288 290 289 287 286 283 277 271 264 261 261 258 258 258 260 262 267 270 271 273 277 277 278 281 279 278 276 276 273 273 273 273 271 266
292 293 288 288 295 295 291 294 292 290 291 291 289 289 288 283 279 274 268 265 262 261 260 260 261 264 268 270 273 275 276 277 277 276 274 274 272 271 270 270 272 269 267
290 292 293 295 296 300 296 296 294 293 292 289 289 288 287 287 284 280 276 274 271 268 264 262 263 266 268 271 273 274 276 275 273 271 271 270 269 269 271 271 270 267 265
289 292 293 296 298 297 295 295 295 294 293 292 290 288 287 285 282 279 278 277 276 275 274 272 270 270 270 272 274 273 271 271 271 270 270 269 269 269 270 269 269 267 265
287 287 287 290 291 290 290 291 292 293 293 292 291 290 288 287 285 283 280 278 277 276 274 274 273 273 272 272 272 273 273 273 272 272 271 270 269 269 268 267 268 267 265
289 287 287 289 289 290 289 290 290 290 289 289 289 288 288 287 285 284 283 282 281 279 277 276 275 275 275 274 273 272 272 272 272 272 271 271 270 270 269 268 267 266 266
285 285 286 288 290 291 292 292 292 291 291 290 290 289 289 286 284 282 281 279 279 278 277 275 274 274 273 273 274 273 272 271 270 269 269 268 268 268 268 267 267 266 265
284 287 288 291 293 293 293 294 294 294 293 291 290 289 287 287 287 288 286 283 282 281 279 278 276 275 274 273 273 272 272 271 270 270 269 268 268 267 266 265 265 265 265
286 289 293 295 298 300 300 301 301 300 298 296 292 289 286 284 283 281 286 286 285 283 282 281 281 280 280 279 278 277 275 274 274 273 271 270 269 269 268 267 266 265 265
287 291 295 297 298 300 301 301 302 301 298 296 294 292 289 287 285 280 274 276 280 282 281 281 280 280 279 277 277 276 276 276 275 274 273 273 272 271 271 271 271 269 269
291 291 294 297 298 300 301 301 302 301 301 297 295 293 291 290 289 287 285 283 280 279 279 281 282 282 280 279 277 277 276 276 275 275 275 275 275 274 273 272 271 270 270
294 295 295 296 299 301 302 303 303 303 302 299 297 295 294 293 291 291 289 287 284 283 282 282 281 280 280 280 279 279 278 278 277 276 275 274 274 273 273 272 272 270 269
296 298 299 300 299 301 302 304 304 304 302 301 300 298 297 297 297 294 293 291 288 288 287 286 285 285 285 283 282 281 280 279 278 278 278 277 276 276 275 275 274 273 272
296 300 300 300 301 301 304 306 305 304 303 302 301 300 301 300 298 298 297 296 294 289 289 289 288 287 287 286 286 286 285 285 284 283 281 280 279 277 277 277 276 275 274
297 300 301 301 303 304 306 306 306 305 303 302 303 303 301 301 301 300 298 297 297 296 294 291 289 288 287 287 288 288 287 286 285 284 284 282 280 279 277 276 274 273 272
298 300 302 304 304 306 307 307 306 304 305 304 303 302 303 303 302 299 299 299 299 297 296 294 292 290 289 288 288 286 286 286 286 284 282 282 281 279 277 275 273 271 270
299 302 304 305 306 306 307 305 305 305 304 303 305 305 304 303 302 301 301 300 299 297 296 295 294 293 292 292 290 290 288 286 283 283 282 282 280 277 275 273 272 271 269
301 303 304 305 306 306 305 306 305 304 305 305 305 305 304 304 303 302 301 299 298 297 297 297 297 295 294 293 292 291 289 287 288 286 285 283 280 277 277 276 273 270 267
302 303 305 305 306 305 306 305 304 304 305 306 306 306 305 304 304 302 300 300 300 299 299 297 297 297 296 295 293 290 291 291 290 289 288 285 283 282 278 275 272 271 268
302 304 305 305 305 305 304 305 305 306 306 307 306 305 305 304 303 302 302 303 303 301 299 300 301 301 299 296 295 294 292 291 290 291 288 284 284 281 279 277 275 273 270
304 304 304 305 304 305 305 305 306 308 309 307 306 306 305 305 305 305 306 306 305 303 303 304 303 301 299 297 295 295 294 292 290 289 286 285 286 281 281 279 276 273 272
303 303 304 305 305 305 306 308 309 309 307 307 307 307 306 306 306 308 308 308 306 306 307 307 305 302 300 299 297 296 295 291 291 292 289 289 287 287 285 283 278 275 272
303 304 305 305 305 307 308 309 309 308 308 308 308 307 307 308 309 309 310 309 308 308 307 307 306 304 303 301 300 298 296 294 293 293 291 292 292 291 289 284 281 277 272
303 305 304 306 307 308 309 309 309 308 309 309 310 309 311 312 312 312 312 311 309 309 308 308 306 305 304 303 303 301 299 299 299 300 297 296 295 294 290 284 279 273 267
304 305 306 308 309 309 309 309 310 310 310 311 311 312 314 314 314 313 313 312 312 311 310 308 307 307 306 305 303 302 301 302 303 300 295 293 294 295 292 286 277 270 263